Theta_e
318 318 318 318 318 317 317 316 317 317 316 316 316 316 316 316 316 316 316 316 316 315 315 316 316 317 310 301 299 335 349 345 351 329 330 323 328 316 304 310 317 317 319 318 320 320 327
319 319 318 318 317 317 316 317 317 317 317 317 317 317 317 317 316 316 316 316 316 314 315 316 317 316 303 289 304 310 337 338 340 326 316 313 312 310 304 303 306 307 313 313 311 311 318
320 319 318 318 317 317 317 316 316 316 316 316 316 316 316 316 316 316 316 315 314 314 315 317 318 313 306 295 306 307 323 322 327 322 313 313 311 309 306 302 306 306 304 307 308 309 316
318 317 317 317 317 317 317 316 316 316 316 316 315 316 316 315 316 315 314 313 314 315 318 320 319 310 295 307 310 307 306 308 322 319 312 315 312 306 303 306 305 301 299 297 304 308 315
318 318 317 317 316 316 316 316 315 315 315 315 315 315 315 315 314 313 311 312 315 321 320 320 310 304 296 317 312 309 306 304 309 314 314 318 310 304 303 299 296 295 294 297 301 307 312
317 317 316 315 314 316 315 315 315 315 314 314 314 314 314 314 313 311 310 312 313 319 318 318 317 301 306 305 314 314 307 308 305 307 307 308 303 298 295 295 290 293 293 295 298 305 312
315 315 315 314 314 314 314 314 314 314 314 314 314 313 313 312 311 309 307 299 296 296 297 305 305 304 307 309 312 309 308 306 306 302 298 301 297 295 296 297 299 299 297 297 300 306 310
315 315 314 313 313 313 313 313 313 313 313 313 313 312 312 311 310 309 300 297 297 296 291 299 299 301 309 306 303 306 309 301 300 297 300 296 297 300 302 300 300 298 296 296 299 304 301
314 314 313 313 314 313 313 313 313 313 313 313 312 312 311 310 309 300 297 297 301 297 288 295 299 299 300 302 301 302 305 302 299 297 299 298 297 304 303 299 297 295 296 296 297 301 302
313 314 314 314 313 313 313 313 313 313 313 312 312 312 310 308 298 298 295 299 300 300 285 292 294 298 302 301 297 308 308 305 300 299 297 296 301 302 299 299 299 291 299 300 299 295 291
314 314 313 313 313 313 313 313 313 312 312 312 312 311 309 308 296 295 297 301 301 292 283 301 295 302 300 298 298 301 309 305 299 298 298 296 298 298 298 299 300 298 301 299 298 294 291
313 312 312 312 312 312 312 312 312 312 312 311 311 310 308 301 296 298 300 300 293 288 282 295 297 295 294 295 297 301 304 306 305 300 299 300 302 302 300 302 302 303 298 295 293 291 287
312 311 311 312 312 312 312 312 312 311 311 310 309 308 306 304 294 299 299 293 284 281 295 293 292 295 293 293 295 296 298 299 298 292 292 297 300 300 302 298 299 298 293 286 285 285 288
311 312 312 312 312 312 312 312 312 311 311 309 307 306 301 302 300 298 294 287 279 289 288 295 295 294 291 294 294 296 294 296 299 296 293 292 290 299 301 299 296 294 292 286 282 282 288
312 312 312 312 312 312 312 312 311 311 310 308 306 296 295 297 301 297 290 280 281 285 293 291 293 290 290 293 293 293 291 294 300 295 293 291 293 301 302 301 302 293 293 294 286 286 285
312 312 312 312 312 312 312 312 311 311 310 308 297 294 292 300 298 294 287 282 285 293 294 292 286 290 287 289 290 290 290 296 296 300 296 293 290 296 303 303 301 296 297 290 285 283 281
311 311 312 312 312 312 312 312 311 310 309 306 291 287 293 299 295 289 279 282 288 294 295 290 288 287 289 288 289 288 291 296 299 298 299 293 289 290 297 297 298 293 292 289 291 287 284
311 312 312 312 312 312 312 312 311 309 307 298 287 282 294 295 284 282 279 285 291 292 294 292 292 291 290 291 289 289 291 295 300 299 294 295 287 289 291 296 301 303 297 291 290 287 285
311 312 312 312 312 312 312 312 310 308 307 294 285 287 294 292 278 279 285 287 290 290 290 289 289 292 292 289 286 292 292 299 298 296 295 295 287 283 286 292 294 292 298 294 297 289 290
311 311 311 312 312 312 312 311 310 308 308 295 286 283 285 288 284 282 284 282 286 293 292 292 290 293 290 288 290 288 291 297 298 299 304 296 286 285 284 287 291 290 294 295 296 293 294
311 311 311 311 312 312 312 311 310 308 307 295 287 282 286 280 282 286 286 283 285 284 290 292 290 290 286 282 286 286 290 292 295 298 294 290 286 287 289 293 294 293 294 295 293 296 293
310 310 310 310 311 311 312 311 310 309 305 294 288 289 291 288 288 287 286 281 283 286 286 286 288 289 289 283 285 283 286 287 288 292 288 288 285 287 288 293 294 292 295 296 297 296 295
310 310 310 310 310 311 311 311 310 309 303 295 297 296 292 289 286 282 282 284 285 286 288 291 289 287 286 288 291 291 290 290 290 288 286 286 286 285 283 290 291 289 294 296 296 297 297
310 310 310 310 310 310 311 312 311 309 304 299 296 296 290 285 287 285 288 287 286 287 286 288 289 287 291 294 294 291 288 289 291 290 290 285 284 286 283 286 282 291 298 300 299 300 300
310 310 310 310 310 310 310 310 311 310 308 297 296 296 292 284 287 287 287 288 287 287 285 287 289 290 292 290 285 281 280 282 286 290 289 290 286 283 282 282 289 293 302 305 302 299 302
310 310 310 310 310 310 310 310 310 310 309 300 297 297 295 288 286 290 287 288 284 284 285 287 291 291 289 285 282 277 276 280 283 287 290 289 290 285 283 282 282 292 308 313 311 296 303
310 310 310 310 310 310 310 311 310 310 309 300 297 299 296 289 291 291 287 286 286 288 285 288 288 287 288 285 282 279 278 286 280 282 281 284 286 282 284 284 288 297 311 315 295 298 315
310 310 310 311 310 310 310 310 310 310 310 303 299 300 297 292 292 293 294 290 289 289 284 289 286 288 289 285 283 284 279 283 281 284 284 282 283 282 284 284 283 309 311 308 310 316 318
310 310 310 310 311 311 310 310 311 311 310 308 298 298 302 295 293 297 296 297 295 294 291 291 289 288 287 286 285 285 282 285 284 280 290 284 289 287 287 288 299 311 312 315 318 315 317
Wind_Speed
16 16 17 18 18 18 20 21 21 20 22 23 23 24 24 24 24 24 24 24 23 24 22 19 15 12 6 3 14 5 18 16 19 9 18 12 15 5 7 5 4 8 9 7 13 7 8
15 16 16 17 17 18 19 20 21 21 22 23 23 24 24 25 25 26 25 23 22 23 22 19 13 6 3 7 6 6 12 16 13 11 8 8 11 8 3 3 7 5 12 15 6 6 6
16 18 18 18 18 18 18 20 21 21 22 23 23 24 25 26 27 29 29 27 26 24 23 19 13 7 3 18 4 5 9 9 16 15 9 5 5 11 6 4 8 6 7 6 8 6 9
18 18 19 18 18 19 19 20 21 21 22 22 24 25 26 27 27 30 32 31 28 22 14 9 15 7 11 5 5 4 4 3 7 6 2 6 6 2 2 2 6 2 1 2 2 7 6
17 17 18 19 19 19 19 20 21 22 22 23 24 25 27 29 29 30 33 29 14 7 12 19 9 4 11 2 4 7 9 7 6 3 4 5 6 6 2 3 5 3 5 6 4 9 3
19 19 19 21 21 20 20 21 22 22 23 24 25 26 27 28 30 31 32 21 6 7 9 5 5 2 5 5 4 5 5 11 6 8 5 6 3 5 3 6 12 6 4 4 4 3 6
19 19 19 21 21 21 21 22 23 24 24 25 26 26 28 29 30 32 16 3 6 3 4 8 4 6 5 5 3 4 6 9 7 5 9 6 5 14 10 6 5 6 4 3 3 2 4
19 19 20 20 21 21 22 23 23 24 25 26 27 26 27 31 31 24 6 7 6 4 15 15 22 18 17 5 5 3 11 9 8 7 9 4 20 10 9 9 8 6 6 7 4 7 2
19 19 20 20 20 21 21 22 22 23 24 26 27 27 27 31 32 5 3 4 3 2 5 11 8 7 8 13 12 9 12 6 7 9 18 18 7 12 12 7 9 6 12 5 4 2 1
19 18 18 19 20 21 21 22 23 24 25 26 28 28 27 29 6 6 5 2 5 4 4 10 5 7 5 9 7 10 15 8 5 21 9 8 6 13 8 13 10 8 8 7 7 4 4
18 18 19 20 21 21 22 22 23 23 24 27 29 27 25 16 5 4 7 12 11 2 7 1 2 1 5 7 0 7 6 2 11 9 11 10 13 15 12 9 8 10 7 8 6 6 2
18 20 21 21 21 21 21 21 22 23 24 26 28 28 28 2 1 7 10 13 2 4 12 4 4 1 4 4 4 3 5 1 6 6 1 9 5 13 12 7 9 8 5 6 5 5 6
20 20 21 21 21 20 20 21 22 23 23 25 28 28 19 1 5 4 7 4 3 6 6 5 4 5 5 4 3 5 11 13 12 9 9 5 16 3 6 8 4 6 9 2 3 3 10
20 19 19 20 20 20 21 21 22 22 23 25 28 24 5 4 7 4 4 4 5 2 4 4 5 7 3 8 4 6 9 16 5 5 6 10 6 16 5 9 10 8 10 8 9 5 6
19 20 20 20 20 20 21 21 22 22 23 24 24 5 5 4 7 3 5 1 5 4 6 10 8 4 4 6 2 4 4 2 7 2 7 9 10 3 7 6 17 6 12 9 5 1 2
20 21 21 22 21 20 21 21 21 21 22 22 6 6 6 6 6 3 5 5 5 7 14 6 4 6 5 6 6 6 5 8 11 7 4 3 2 7 16 6 8 12 9 5 2 7 6
21 21 21 21 20 20 20 20 19 19 19 17 4 5 5 11 3 6 3 5 7 11 12 5 6 6 4 4 5 4 5 6 13 10 8 6 3 3 7 10 20 4 7 4 6 7 7
20 20 20 20 20 20 21 19 17 15 16 7 3 4 5 8 7 3 3 7 9 12 11 5 5 6 5 5 4 4 4 4 11 9 5 1 3 7 7 2 5 21 12 8 7 12 4
20 20 20 21 21 21 22 18 15 12 11 2 3 3 6 4 5 4 7 6 3 10 9 9 6 5 4 4 3 5 4 5 12 9 5 6 2 2 4 5 1 5 13 8 12 3 16
20 20 20 19 19 20 19 16 12 11 9 3 3 6 5 5 2 3 7 6 6 6 4 9 7 6 6 6 5 4 6 5 8 6 8 3 1 4 3 1 4 7 5 8 16 13 17
19 19 20 20 20 20 19 15 12 10 7 4 2 3 2 5 4 5 5 4 7 7 6 4 6 10 5 3 5 3 6 5 4 6 4 4 0 2 2 12 7 12 15 12 11 21 17
18 19 19 20 20 18 18 16 13 9 5 2 1 1 1 4 7 7 3 4 4 5 4 6 1 11 12 4 3 4 6 2 4 5 5 4 2 2 4 9 10 12 13 14 14 11 10
18 19 19 19 19 18 16 15 13 8 5 1 2 2 2 3 3 2 3 5 4 11 9 10 6 11 8 8 3 8 8 8 8 4 3 3 3 2 5 7 12 16 9 16 9 8 12
18 18 18 18 19 19 18 17 13 7 8 3 3 2 3 3 3 4 8 12 13 12 10 14 11 9 4 7 8 6 6 10 11 12 9 2 1 4 5 5 9 4 10 9 15 18 17
19 19 18 18 18 18 18 18 16 11 3 3 2 2 2 5 6 11 14 12 7 6 11 11 13 8 6 4 4 6 4 2 9 18 15 15 5 4 4 6 13 20 4 6 1 10 11
19 19 19 19 19 19 18 17 16 13 8 3 3 3 2 4 5 11 5 8 5 7 6 4 6 6 1 3 0 3 4 4 5 5 13 10 11 2 1 7 8 4 2 6 4 6 6
21 21 21 21 21 21 20 20 18 16 9 4 3 4 3 5 7 8 6 5 4 3 4 6 5 6 2 1 3 4 5 3 4 4 4 6 8 16 11 7 7 6 6 3 5 6 18
20 21 21 22 23 23 23 22 21 19 16 3 4 6 3 4 10 13 14 12 10 6 4 2 5 1 1 3 3 4 4 4 4 7 5 8 9 7 8 7 16 1 0 2 5 11 17
21 21 21 23 24 24 24 23 22 20 17 8 3 2 3 4 7 10 15 17 21 21 8 6 5 2 4 3 3 2 3 2 4 6 6 9 9 5 10 8 8 5 5 4 5 10 12
Wind_Direction
359 358 359 358 357 355 353 352 348 346 343 341 339 335 333 331 327 324 319 314 310 307 302 298 294 301 326 247 247 140 96 135 159 162 163 160 166 174 170 196 201 240 252 247 260 208 200
350 350 353 354 354 353 350 348 346 342 340 338 335 332 331 328 325 321 317 310 304 300 292 285 275 263 217 237 232 186 132 138 171 169 177 154 171 192 222 193 173 224 244 259 277 220 220
358 358 358 355 352 349 346 346 345 343 338 335 333 331 330 328 326 322 318 313 307 299 286 271 234 190 219 230 136 62 162 171 165 178 161 207 158 161 174 311 234 258 285 288 250 259 217
8 4 2 359 355 350 346 344 345 341 337 335 333 331 329 328 326 323 319 316 311 302 278 219 177 177 241 235 272 228 196 135 175 178 156 207 131 143 172 277 352 292 145 246 277 190 261
4 2 0 357 356 353 350 347 345 341 339 336 334 331 330 329 328 325 322 319 331 42 100 128 131 203 258 216 204 200 166 183 140 197 196 131 119 185 146 166 351 332 233 211 303 202 154
4 1 1 359 355 351 350 348 346 343 340 337 335 333 331 330 328 326 325 316 277 92 115 189 118 316 250 219 198 159 177 149 156 124 112 163 126 157 133 151 209 212 217 264 236 204 165
2 1 1 358 355 353 350 348 346 344 341 338 336 335 332 333 330 329 332 7 8 358 346 219 195 272 287 276 280 181 151 139 124 134 153 182 170 212 191 173 176 190 207 200 280 266 140
360 359 359 356 355 354 351 349 347 344 341 338 335 335 335 331 327 325 336 71 93 232 299 244 245 251 259 32 340 222 137 142 163 174 131 117 224 198 176 192 193 188 232 247 279 277 90
3 2 357 354 352 351 348 346 344 342 339 336 332 333 339 335 327 22 318 105 99 285 244 280 210 223 214 164 219 233 163 154 149 156 186 199 224 168 189 178 183 198 209 177 187 335 343
360 355 352 352 350 348 345 342 341 340 337 333 329 333 340 338 31 322 289 21 338 212 325 272 239 255 139 135 243 197 185 151 166 197 129 212 215 188 177 206 174 220 181 140 160 116 213
356 354 352 351 349 347 344 341 338 338 336 331 325 330 338 336 271 309 297 338 324 108 319 245 183 70 166 192 188 213 166 163 175 166 150 212 178 182 206 198 161 223 150 173 159 186 161
355 354 353 351 349 345 343 341 339 338 336 330 322 325 333 13 267 252 307 307 88 56 249 325 81 62 117 237 298 82 163 217 144 128 301 198 196 190 199 175 173 156 107 61 51 109 235
353 351 349 346 344 343 342 340 338 338 336 328 321 327 324 270 275 308 328 349 67 192 328 1 340 10 350 314 230 140 194 189 172 141 186 175 220 198 151 166 164 135 104 297 295 191 241
349 345 343 342 341 340 339 337 335 336 335 329 325 326 306 240 285 319 14 61 216 235 300 339 339 313 105 352 4 328 159 192 240 119 149 171 222 202 193 186 179 183 145 162 205 209 222
344 342 340 339 337 337 337 336 335 335 336 334 327 332 319 274 319 36 47 173 219 347 359 333 309 48 347 350 17 354 5 250 206 170 169 174 240 256 184 156 163 190 198 167 82 299 33
342 340 338 335 333 333 332 334 335 335 335 337 334 342 286 314 321 62 69 279 298 15 349 333 326 32 16 323 29 32 28 335 337 12 6 248 231 208 203 123 195 158 163 124 18 192 246
340 337 334 332 331 329 328 332 333 333 334 339 27 358 269 333 46 44 75 290 296 353 345 327 348 325 350 9 7 3 357 48 3 339 30 0 128 305 113 199 197 145 181 100 144 158 186
337 334 333 333 333 330 328 331 331 332 337 47 35 341 315 348 51 32 338 314 297 343 339 326 343 33 356 356 350 12 56 46 5 330 16 347 97 222 201 219 244 213 194 151 167 223 240
336 336 339 339 337 335 331 329 333 332 356 10 351 283 316 48 60 340 315 295 349 344 336 354 324 5 346 352 14 22 21 70 13 12 30 331 3 51 50 323 257 181 228 185 218 90 214
339 339 339 336 335 336 340 338 335 333 347 72 30 343 327 34 77 25 335 297 327 336 359 340 307 35 10 7 6 4 357 24 338 10 23 50 79 112 227 238 352 307 313 204 209 224 229
336 339 339 339 338 340 343 349 346 339 343 84 37 286 228 317 339 317 319 278 310 351 343 64 326 16 0 341 339 24 2 335 322 10 34 77 288 345 244 285 256 245 256 265 247 225 219
335 336 337 341 341 340 341 345 345 341 87 57 280 292 336 285 291 309 315 286 314 347 310 312 293 339 331 294 330 308 13 332 270 342 30 355 265 31 280 272 306 287 267 256 245 236 263
333 335 337 337 338 339 335 334 341 345 103 257 273 277 182 250 264 310 249 263 309 327 290 252 339 321 318 307 309 254 224 242 242 284 349 323 162 56 265 312 318 292 249 236 225 194 213
328 330 333 336 336 337 336 331 331 338 179 179 225 279 257 283 277 282 272 289 287 290 279 286 303 289 277 339 298 276 231 233 247 239 188 206 241 163 244 336 247 259 293 268 250 221 210
323 324 329 327 326 329 329 328 330 330 290 165 210 204 255 276 266 282 270 286 299 303 280 256 270 259 308 305 332 332 325 262 237 234 215 203 190 250 199 210 296 308 336 32 27 283 236
323 322 321 319 318 314 317 316 320 324 329 142 227 178 253 283 230 257 295 296 290 290 297 280 317 311 143 82 69 239 240 254 281 267 223 190 212 247 158 213 221 221 216 281 170 256 304
321 320 319 315 313 310 308 307 307 306 304 173 243 186 232 255 250 237 243 267 198 263 264 281 314 326 70 195 236 234 249 239 244 244 156 165 189 218 236 261 280 250 292 314 202 293 323
314 313 313 309 307 306 305 300 298 299 290 222 243 182 200 251 270 249 245 244 253 238 235 296 329 240 233 223 241 227 231 239 263 225 188 174 178 188 213 236 245 312 41 177 322 306 307
310 309 308 304 303 302 303 300 296 289 291 270 245 204 193 238 260 278 253 243 229 227 235 201 228 208 239 235 257 271 268 258 245 260 221 226 214 197 198 214 221 171 231 245 284 314 304